Weather History for Baltimore Martin, MD

Change the Weather History Date:

Tuesday, February 12, 2013

  Actual Average Record
Temperature  
Mean Temperature 43 °F -  
Max Temperature 53 °F 41 °F 62 °F (1999)
Min Temperature 33 °F 27 °F 12 °F (2014)
Degree Days  
Heating Degree Days 22    
Moisture  
Dew Point 31 °F    
Average Humidity 65    
Maximum Humidity 100    
Minimum Humidity 38    
Precipitation  
Precipitation 0.00 in - - ()
Sea Level Pressure  
Sea Level Pressure 29.92 in    
Wind  
Wind Speed 6 mph (West)    
Max Wind Speed 30 mph    
Max Gust Speed 36 mph    
Visibility 10 miles    
Events      
Averages and records for this station are not official NWS values.
T = Trace of Precipitation, MM = Missing Value Source: NWS Daily Summary

Daily Weather History Graph

Daily Weather History Graph

Search for Another Location

Airport:

Trip Planner

Search our weather history database for the weather conditions in past years. The results will help you decide how hot, cold, wet, or windy it might be!

Date:

Astronomy

Feb. 12, 2013 Rise Set
Actual Time 7:00 AM EST 5:39 PM EST
Civil Twilight 6:33 AM EST 6:07 PM EST
Nautical Twilight 6:01 AM EST 6:38 PM EST
Astronomical Twilight 5:30 AM EST 7:09 PM EST
Moon 7:58 AM EST 8:36 PM EST
Length of Visible Light 11h 33m
Length of Day
10h 38m
Waxing Crescent, 7% of the Moon is Illuminated
Feb 12
Waxing Crescent
Feb 17
First Quarter
Feb 25
Full
Mar 4
Last Quarter
Mar 11
New

Hourly Weather History & Observations

Time (EST) Temp. Windchill Dew Point Humidity Pressure Visibility Wind Dir Wind Speed Gust Speed Precip Events Conditions
12:06 AM 42.8 °F - 42.8 °F 100% 29.82 in 10.0 mi Calm Calm - N/A   Clear
12:24 AM 41.0 °F 39.0 °F 41.0 °F 100% 29.83 in 10.0 mi NNW 3.5 mph - N/A   Clear
12:45 AM 37.4 °F - 37.4 °F 100% 29.84 in 10.0 mi Calm Calm - N/A   Clear
1:06 AM 37.4 °F - 37.4 °F 100% 29.84 in 10.0 mi Calm Calm - N/A   Clear
1:24 AM 35.6 °F 31.7 °F 35.6 °F 100% 29.83 in 10.0 mi West 4.6 mph - N/A   Clear
1:45 AM 39.2 °F 35.9 °F 39.2 °F 100% 29.84 in 10.0 mi SW 4.6 mph - N/A   Clear
2:06 AM 44.6 °F 42.2 °F 35.6 °F 71% 29.84 in 10.0 mi SW 4.6 mph - N/A   Clear
2:24 AM 44.6 °F 40.7 °F 33.8 °F 66% 29.85 in 10.0 mi WSW 6.9 mph - N/A   Clear
2:45 AM 44.6 °F 38.8 °F 32.0 °F 61% 29.86 in 10.0 mi West 11.5 mph 16.1 mph N/A   Clear
3:06 AM 44.6 °F 38.8 °F 32.0 °F 61% 29.85 in 10.0 mi West 11.5 mph - N/A   Clear
3:27 AM 44.6 °F 38.1 °F 32.0 °F 61% 29.85 in 10.0 mi West 13.8 mph 19.6 mph N/A   Clear
3:45 AM 42.8 °F 35.8 °F 32.0 °F 66% 29.84 in 10.0 mi West 13.8 mph 26.5 mph N/A   Clear
4:06 AM 44.6 °F 37.4 °F 32.0 °F 61% 29.85 in 10.0 mi West 16.1 mph 29.9 mph N/A   Clear
4:27 AM 44.6 °F 34.7 °F 32.0 °F 61% 29.85 in 10.0 mi West 29.9 mph 33.4 mph N/A   Clear
4:45 AM 44.6 °F 36.6 °F 32.0 °F 61% 29.89 in 10.0 mi West 19.6 mph 35.7 mph N/A   Clear
5:06 AM 44.6 °F 38.8 °F 30.2 °F 57% 29.90 in 10.0 mi West 11.5 mph - N/A   Scattered Clouds
5:27 AM 44.6 °F 40.2 °F 30.2 °F 57% 29.91 in 10.0 mi WSW 8.1 mph 16.1 mph N/A   Overcast
5:30 AM 44.6 °F 40.7 °F 30.2 °F 57% 29.91 in 10.0 mi WSW 6.9 mph 16.1 mph N/A   Overcast
5:45 AM 46.4 °F 42.4 °F 28.4 °F 50% 29.91 in 10.0 mi West 8.1 mph - N/A   Mostly Cloudy
6:45 AM 44.6 °F 40.2 °F 28.4 °F 53% 29.93 in 10.0 mi West 8.1 mph - N/A   Mostly Cloudy
7:55 AM 46.4 °F 42.4 °F 28.4 °F 50% 29.96 in 10.0 mi SSW 8.1 mph - N/A   Mostly Cloudy
8:55 AM 46.4 °F 41.5 °F 30.2 °F 53% 29.98 in 10.0 mi West 10.4 mph - N/A   Mostly Cloudy
9:55 AM 48.2 °F - 28.4 °F 46% 30.00 in 10.0 mi West 13.8 mph 23.0 mph N/A   Mostly Cloudy
10:45 AM 50.0 °F - 28.4 °F 43% 30.00 in 10.0 mi West 13.8 mph 28.8 mph N/A   Scattered Clouds
11:45 AM 50.0 °F - 30.2 °F 47% 30.00 in 10.0 mi WNW 15.0 mph 19.6 mph N/A   Scattered Clouds
12:55 PM 53.6 °F - 28.4 °F 38% 29.98 in 10.0 mi West 8.1 mph - N/A   Scattered Clouds
1:45 PM 53.6 °F - 30.2 °F 41% 29.97 in 10.0 mi WNW 12.7 mph 24.2 mph N/A   Partly Cloudy
2:45 PM 53.6 °F - 30.2 °F 41% 29.94 in 10.0 mi WNW 13.8 mph - N/A   Partly Cloudy
3:55 PM 53.6 °F - 33.8 °F 47% 29.94 in 10.0 mi West 11.5 mph - N/A   Partly Cloudy
4:45 PM 50.0 °F - 30.2 °F 47% 29.95 in 10.0 mi NW 6.9 mph - N/A   Partly Cloudy
5:45 PM 50.0 °F - 28.4 °F 43% 29.97 in 10.0 mi NNW 4.6 mph - N/A   Scattered Clouds
6:45 PM 44.6 °F - 30.2 °F 57% 29.98 in 10.0 mi Calm Calm - N/A   Scattered Clouds
7:45 PM 41.0 °F 39.0 °F 30.2 °F 65% 30.00 in 10.0 mi NE 3.5 mph - N/A   Scattered Clouds
9:45 PM 39.2 °F - 26.6 °F 61% 29.97 in 10.0 mi Calm Calm - N/A   Scattered Clouds
10:09 PM 37.4 °F - 28.4 °F 70% 29.97 in 10.0 mi Calm Calm - N/A   Clear
10:27 PM 35.6 °F - 28.4 °F 75% 29.99 in 10.0 mi Calm Calm - N/A   Clear
10:48 PM 35.6 °F - 28.4 °F 75% 29.98 in 10.0 mi Calm Calm - N/A   Clear
11:09 PM 33.8 °F - 28.4 °F 81% 29.99 in 10.0 mi Calm Calm - N/A   Clear
11:27 PM 33.8 °F - 28.4 °F 81% 29.98 in 10.0 mi Calm Calm - N/A   Clear
11:48 PM 33.8 °F - 28.4 °F 81% 29.99 in 10.0 mi Calm Calm - N/A   Clear